Weather History for KPAH - January, 2014

Change the Weather History Date:

Sunday, January 5, 2014

  Actual Average Record
Temperature  
Mean Temperature 28 °F 34 °F  
Max Temperature 46 °F 43 °F 69 °F (1955)
Min Temperature 10 °F 26 °F -2 °F (1940)
Degree Days  
Heating Degree Days 37 31  
Month to date heating degree days 175 152  
Since 1 July heating degree days 1835 1783  
Cooling Degree Days 0 0  
Month to date cooling degree days 0 0  
Year to date cooling degree days 0 0  
Moisture  
Dew Point 29 °F    
Average Humidity 79    
Maximum Humidity 96    
Minimum Humidity 61    
Precipitation  
Precipitation 0.83 in 0.12 in 1.68 in (1939)
Month to date precipitation 0.87 0.62  
Year to date precipitation 0.87 0.62  
Snow  
Snow 0.10 in 0.10 in 3.00 in (1979)
Month to date snowfall 0.5 0.5  
Since 1 July snowfall 5.7 2.8  
Snow Depth T in    
Sea Level Pressure  
Sea Level Pressure 29.82 in    
Wind  
Wind Speed 14 mph (NW)    
Max Wind Speed 26 mph    
Max Gust Speed 38 mph    
Visibility 5 miles    
Events Rain , Snow    
T = Trace of Precipitation, MM = Missing Value Source: NWS Daily Summary

Daily Weather History Graph

Daily Weather History Graph

Search for Another Location

Airport or City:

Trip Planner

Search our weather history database for the weather conditions in past years. The results will help you decide how hot, cold, wet, or windy it might be!

Date:

Astronomy

Jan. 05, 2014 Rise Set
Actual Time 7:08 AM CST 4:52 PM CST
Civil Twilight 6:40 AM CST 5:21 PM CST
Nautical Twilight 6:07 AM CST 5:53 PM CST
Astronomical Twilight 5:36 AM CST 6:25 PM CST
Moon 9:57 AM CST (1/5) 10:11 PM CST (1/5)
Length of Visible Light 10h 41m
Length of Day
9h 43m
Waxing Crescent, 25% of the Moon is Illuminated
Jan 5
Waxing Crescent
Jan 7
First Quarter
Jan 15
Full
Jan 23
Last Quarter
Jan 30
New

Hourly Weather History & Observations

Time (CST) Temp. Windchill Dew Point Humidity Pressure Visibility Wind Dir Wind Speed Gust Speed Precip Events Conditions
12:53 AM 44.1 °F 36.5 °F 35.1 °F 71% 29.92 in 10.0 mi South 17.3 mph 21.9 mph N/A   Overcast
1:53 AM 45.0 °F 38.9 °F 36.0 °F 71% 29.91 in 10.0 mi South 12.7 mph 19.6 mph N/A   Overcast
2:53 AM 46.0 °F 39.6 °F 36.0 °F 68% 29.89 in 10.0 mi South 15.0 mph 24.2 mph N/A   Overcast
3:53 AM 46.0 °F 40.2 °F 36.0 °F 68% 29.86 in 10.0 mi South 12.7 mph - N/A   Overcast
4:53 AM 45.0 °F - 36.0 °F 71% 29.85 in 10.0 mi North - - N/A   Overcast
5:53 AM 45.0 °F 43.5 °F 37.0 °F 74% 29.83 in 10.0 mi Variable 3.5 mph - 0.00 in   Overcast
6:53 AM 44.1 °F 39.0 °F 37.0 °F 76% 29.81 in 8.0 mi South 9.2 mph - 0.01 in Rain Light Rain
7:53 AM 44.1 °F 39.0 °F 37.9 °F 79% 29.77 in 10.0 mi South 9.2 mph - 0.01 in   Overcast
8:53 AM 45.0 °F 38.2 °F 39.9 °F 82% 29.72 in 4.0 mi South 15.0 mph 24.2 mph 0.01 in Rain Light Rain
9:10 AM 45.0 °F 38.5 °F 41.0 °F 86% 29.71 in 1.8 mi South 13.8 mph - 0.04 in Rain Light Rain
9:18 AM 45.0 °F 39.7 °F 41.0 °F 86% 29.71 in 2.5 mi South 10.4 mph - 0.06 in Rain Light Rain
9:26 AM 45.0 °F 41.2 °F 41.0 °F 86% 29.71 in 5.0 mi Variable 6.9 mph 16.1 mph 0.07 in Rain Light Rain
9:42 AM 45.0 °F 41.8 °F 41.0 °F 86% 29.72 in 2.5 mi West 5.8 mph - 0.09 in Rain Rain
9:49 AM 44.6 °F 41.4 °F 41.0 °F 87% 29.72 in 1.8 mi WNW 5.8 mph - 0.11 in Rain Rain
9:53 AM 44.1 °F 40.1 °F 41.0 °F 89% 29.72 in 2.5 mi NW 6.9 mph - 0.13 in Rain Rain
10:09 AM 44.1 °F 39.5 °F 42.1 °F 93% 29.72 in 1.2 mi NW 8.1 mph - 0.07 in Rain Heavy Rain
10:18 AM 43.0 °F 38.2 °F 41.0 °F 93% 29.72 in 1.0 mi NW 8.1 mph - 0.14 in Rain Heavy Rain
10:29 AM 42.1 °F 36.6 °F 39.9 °F 92% 29.72 in 1.2 mi NNW 9.2 mph - 0.22 in Rain Heavy Rain
10:53 AM 42.1 °F 40.2 °F 39.9 °F 92% 29.70 in 1.2 mi NE 3.5 mph - 0.40 in Rain Heavy Rain
11:01 AM 42.1 °F - 39.9 °F 92% 29.69 in 1.8 mi Calm Calm - 0.01 in Rain Rain
11:40 AM 42.1 °F 40.2 °F 41.0 °F 96% 29.66 in 2.0 mi SE 3.5 mph - 0.12 in Rain Light Rain
11:53 AM 43.0 °F 40.3 °F 41.0 °F 93% 29.66 in 2.5 mi SSE 4.6 mph - 0.13 in Rain Light Rain
12:01 PM 43.0 °F - 41.0 °F 93% 29.65 in 3.0 mi Calm Calm - 0.01 in Rain Light Rain
12:08 PM 43.0 °F - 41.0 °F 93% 29.65 in 2.0 mi Calm Calm - 0.01 in Rain Light Rain
12:22 PM 44.1 °F 42.5 °F 42.1 °F 93% 29.64 in 1.8 mi SW 3.5 mph - 0.01 in   Overcast
12:29 PM 43.0 °F 36.4 °F 41.0 °F 93% 29.64 in 1.5 mi WNW 12.7 mph - 0.02 in Rain Light Rain
12:34 PM 37.9 °F 29.6 °F 37.0 °F 97% 29.64 in 2.0 mi WNW 13.8 mph 19.6 mph 0.02 in Rain Light Rain
12:42 PM 37.0 °F 28.9 °F 35.1 °F 93% 29.65 in 5.0 mi WNW 12.7 mph - 0.02 in Rain Light Rain
12:53 PM 36.0 °F 27.5 °F 34.0 °F 93% 29.65 in 5.0 mi NW 12.7 mph 23.0 mph 0.03 in Rain Light Rain
1:12 PM 34.0 °F 26.0 °F 30.9 °F 89% 29.66 in 5.0 mi NW 10.4 mph 19.6 mph 0.02 in Rain Light Rain
1:43 PM 32.0 °F 20.5 °F 28.9 °F 88% 29.68 in 3.0 mi NW 18.4 mph 26.5 mph 0.08 in Rain Light Freezing Rain
1:50 PM 32.0 °F 23.0 °F 28.4 °F 87% 29.69 in 4.0 mi NW 11.5 mph 26.5 mph 0.09 in Rain Light Freezing Rain
1:53 PM 32.0 °F 21.6 °F 28.9 °F 88% 29.70 in 5.0 mi NW 15.0 mph 23.0 mph 0.09 in Rain Light Freezing Rain
2:26 PM 28.9 °F 17.3 °F 25.0 °F 85% 29.72 in 4.0 mi NW 16.1 mph 32.2 mph 0.01 in Snow Light Snow
2:41 PM 27.0 °F 13.9 °F 24.1 °F 89% 29.74 in 2.5 mi NW 18.4 mph 33.4 mph 0.01 in   Overcast
2:53 PM 27.0 °F 14.3 °F 23.0 °F 85% 29.76 in 2.0 mi NW 17.3 mph 28.8 mph 0.01 in   Overcast
3:01 PM 26.1 °F 11.6 °F 21.9 °F 84% 29.77 in 1.5 mi NW 21.9 mph 35.7 mph 0.00 in Snow Light Snow
3:27 PM 25.0 °F 12.6 °F 21.0 °F 85% 29.79 in 1.5 mi NNW 15.0 mph 29.9 mph 0.01 in Snow Light Snow
3:36 PM 25.0 °F 11.7 °F 21.0 °F 85% 29.79 in 2.5 mi NNW 17.3 mph 24.2 mph 0.01 in   Overcast
3:43 PM 24.1 °F 9.4 °F 19.9 °F 84% 29.80 in 4.0 mi NW 20.7 mph 28.8 mph 0.01 in   Overcast
3:53 PM 24.1 °F 9.4 °F 19.0 °F 81% 29.82 in 9.0 mi NW 20.7 mph 26.5 mph 0.01 in   Overcast
4:53 PM 21.9 °F 7.8 °F 16.0 °F 78% 29.89 in 10.0 mi NNW 17.3 mph 29.9 mph 0.00 in   Overcast
5:53 PM 19.9 °F 6.2 °F 14.0 °F 78% 29.97 in 8.0 mi NW 15.0 mph 31.1 mph 0.00 in Snow Light Snow
6:53 PM 19.0 °F 1.6 °F 12.0 °F 74% 30.03 in 9.0 mi NNW 24.2 mph 35.7 mph 0.00 in Snow Light Snow
7:20 PM 19.0 °F 5.0 °F 12.9 °F 77% 30.05 in 2.0 mi NW 15.0 mph 32.2 mph 0.00 in Snow Light Snow
7:36 PM 19.0 °F 1.3 °F 12.0 °F 74% 30.07 in 4.0 mi NNW 25.3 mph 36.8 mph 0.00 in Snow Light Snow
7:53 PM 19.0 °F 6.1 °F 12.9 °F 77% 30.09 in 5.0 mi NNW 12.7 mph 25.3 mph 0.00 in Snow Light Snow
8:53 PM 16.0 °F 0.1 °F 10.0 °F 77% 30.15 in 7.0 mi NNW 17.3 mph 34.5 mph 0.00 in Snow Light Snow
9:53 PM 14.0 °F -3.0 °F 6.1 °F 71% 30.21 in 10.0 mi NNW 18.4 mph 29.9 mph 0.00 in   Overcast
10:17 PM 12.9 °F -4.4 °F 3.0 °F 65% 30.21 in 10.0 mi NW 18.4 mph 32.2 mph N/A   Partly Cloudy
10:53 PM 12.0 °F -3.4 °F 1.0 °F 61% 30.23 in 10.0 mi NW 13.8 mph 26.5 mph N/A   Clear
11:53 PM 10.9 °F -5.9 °F -0.9 °F 59% 30.27 in 10.0 mi NNW 16.1 mph 27.6 mph N/A   Clear